This is the latest recevied weather packets stored in our database for station/object KF5JED-13. If no packets are shown the sender has not sent any weather packets the latest 10 day(s).
| Time | Temp. | Humidity | Pressure | Rain* | Wind** | Luminosity | Snow |
|---|---|---|---|---|---|---|---|
| 1778260786 | 25.56° C | 31% | 1012.1 hPa | 0 mm | - | 827 W/m² | - |
| 1778260484 | 25° C | 30% | 1011.9 hPa | 0 mm | - | 819 W/m² | - |
| 1778260180 | 24.44° C | 32% | 1012.1 hPa | 0 mm | - | 813 W/m² | - |
| 1778259877 | 24.44° C | 33% | 1012.2 hPa | 0 mm | - | 803 W/m² | - |
| 1778259574 | 23.89° C | 34% | 1012.3 hPa | 0 mm | - | 796 W/m² | - |
| 1778259272 | 23.33° C | 34% | 1012.3 hPa | 0 mm | - | 788 W/m² | - |
| 1778258967 | 23.89° C | 34% | 1012.3 hPa | 0 mm | - | 781 W/m² | - |
| 1778258665 | 23.33° C | 34% | 1012.1 hPa | 0 mm | - | 769 W/m² | - |
| 1778258362 | 23.33° C | 36% | 1012.3 hPa | 0 mm | - | 762 W/m² | - |
| 1778258060 | 22.78° C | 37% | 1012.2 hPa | 0 mm | - | 748 W/m² | - |
| 1778257755 | 22.78° C | 36% | 1012.6 hPa | 0 mm | - | 741 W/m² | - |
| 1778257453 | 22.78° C | 36% | 1012.6 hPa | 0 mm | - | 734 W/m² | - |
| 1778257149 | 22.78° C | 37% | 1012.5 hPa | 0 mm | - | 719 W/m² | - |
| 1778256847 | 22.22° C | 39% | 1012.7 hPa | 0 mm | - | 712 W/m² | - |
| 1778256544 | 22.22° C | 39% | 1012.5 hPa | 0 mm | - | 701 W/m² | - |
| 1778256243 | 22.22° C | 39% | 1012.8 hPa | 0 mm | - | 688 W/m² | - |
| 1778255938 | 22.22° C | 40% | 1012.7 hPa | 0 mm | - | 678 W/m² | - |
| 1778255636 | 21.67° C | 40% | 1012.8 hPa | 0 mm | - | 665 W/m² | - |
| 1778255332 | 21.67° C | 42% | 1012.7 hPa | 0 mm | - | 648 W/m² | - |
| 1778255030 | 21.67° C | 42% | 1012.8 hPa | 0 mm | - | 636 W/m² | - |
| 1778254726 | 21.67° C | 43% | 1012.8 hPa | 0 mm | - | 622 W/m² | - |
| 1778254424 | 21.11° C | 43% | 1012.9 hPa | 0 mm | - | 604 W/m² | - |
| 1778254119 | 21.11° C | 46% | 1013 hPa | 0 mm | - | 586 W/m² | - |
| 1778253816 | 20.56° C | 48% | 1012.8 hPa | 0 mm | - | 574 W/m² | - |
| 1778253513 | 21.11° C | 47% | 1012.9 hPa | 0 mm | - | 563 W/m² | - |
* Rain latest hour (hover to see other rain measurements)
** Current wind speed in m/s (hover to see current wind gust speed)